EN

Hourly Weather Dzialy

Today, 23 October, Friday

Time Temperature Precipitation Wind Pressure Humidity
00:00 +13°C° 0 mm 3 mps 751 mmHg 81%
01:00 +13°C° 0 mm 3 mps 751 mmHg 81%
02:00 +13°C° 0 mm 4 mps 750 mmHg 80%
03:00 +13°C° 0 mm 4 mps 750 mmHg 79%
04:00 +13°C° 0 mm 4 mps 750 mmHg 79%
05:00 +13°C° 0 mm 4 mps 750 mmHg 79%
06:00 +13°C° 0 mm 4 mps 750 mmHg 79%
07:00 +13°C° 0 mm 4 mps 749 mmHg 80%
08:00 +14°C° 0 mm 4 mps 749 mmHg 77%
09:00 +15°C° 0 mm 4 mps 749 mmHg 75%
10:00 +16°C° 0 mm 5 mps 749 mmHg 72%
11:00 +16°C° 0 mm 5 mps 749 mmHg 71%
12:00 +18°C° 0 mm 4 mps 749 mmHg 70%
13:00 +18°C° 0 mm 4 mps 749 mmHg 69%
14:00 +17°C° 0 mm 3 mps 749 mmHg 73%
15:00 +17°C° 0 mm 2 mps 749 mmHg 76%
16:00 +16°C° 0 mm 2 mps 749 mmHg 80%
17:00 +16°C° 0 mm 2 mps 749 mmHg 81%
18:00 +16°C° 0 mm 2 mps 749 mmHg 81%
19:00 +16°C° 0 mm 2 mps 749 mmHg 82%
20:00 +15°C° 0.2 mm 1 mps 749 mmHg 84%
21:00 +15°C° 0.2 mm 1 mps 749 mmHg 87%
22:00 +15°C° 0.2 mm 1 mps 749 mmHg 89%
23:00 +14°C° 1 mm 1 mps 749 mmHg 91%

Tomorrow, 24 October, Saturday

Time Temperature Precipitation Wind Pressure Humidity
00:00 +14°C° 1 mm 1 mps 748 mmHg 94%
01:00 +14°C° 1 mm 1 mps 748 mmHg 96%
02:00 +14°C° 1.6 mm 1 mps 748 mmHg 96%
03:00 +14°C° 1.6 mm 2 mps 748 mmHg 96%
04:00 +14°C° 1.6 mm 2 mps 748 mmHg 96%
05:00 +14°C° 1.9 mm 2 mps 748 mmHg 96%
06:00 +14°C° 1.9 mm 2 mps 748 mmHg 96%
07:00 +14°C° 1.9 mm 2 mps 748 mmHg 96%
08:00 +14°C° 0.4 mm 2 mps 748 mmHg 94%
09:00 +14°C° 0.4 mm 2 mps 748 mmHg 91%
10:00 +14°C° 0.4 mm 2 mps 749 mmHg 89%
11:00 +14°C° 0.1 mm 3 mps 749 mmHg 83%
12:00 +15°C° 0.1 mm 4 mps 749 mmHg 78%
13:00 +16°C° 0.1 mm 5 mps 750 mmHg 73%
14:00 +15°C° 0 mm 4 mps 750 mmHg 74%
15:00 +15°C° 0 mm 4 mps 750 mmHg 76%
16:00 +14°C° 0 mm 4 mps 751 mmHg 78%
17:00 +13°C° 0 mm 4 mps 751 mmHg 81%
18:00 +12°C° 0 mm 4 mps 752 mmHg 84%
19:00 +11°C° 0 mm 3 mps 752 mmHg 87%
20:00 +10°C° 0 mm 3 mps 752 mmHg 88%
21:00 +10°C° 0 mm 2 mps 753 mmHg 89%
22:00 +10°C° 0 mm 2 mps 753 mmHg 90%
23:00 +9°C° 0 mm 2 mps 753 mmHg 90%

Day after tomorrow, 25 October, Sunday

Time Temperature Precipitation Wind Pressure Humidity
00:00 +9°C° 0 mm 2 mps 753 mmHg 90%
01:00 +9°C° 0 mm 2 mps 753 mmHg 90%
02:00 +9°C° 0 mm 2 mps 753 mmHg 89%
03:00 +10°C° 0 mm 3 mps 753 mmHg 88%
04:00 +10°C° 0 mm 3 mps 753 mmHg 87%
05:00 +10°C° 0 mm 3 mps 753 mmHg 89%
06:00 +9°C° 0 mm 3 mps 753 mmHg 91%
07:00 +9°C° 0 mm 3 mps 753 mmHg 93%
08:00 +10°C° 0 mm 3 mps 753 mmHg 87%
09:00 +12°C° 0 mm 3 mps 753 mmHg 82%
10:00 +13°C° 0 mm 3 mps 753 mmHg 77%
11:00 +14°C° 0 mm 3 mps 753 mmHg 73%
12:00 +16°C° 0 mm 3 mps 753 mmHg 70%
13:00 +17°C° 0 mm 3 mps 753 mmHg 66%
14:00 +16°C° 0 mm 3 mps 752 mmHg 70%
15:00 +14°C° 0 mm 3 mps 752 mmHg 74%
16:00 +15°C° 0 mm 2 mps 752 mmHg 77%
17:00 +13°C° 0 mm 3 mps 752 mmHg 80%
18:00 +12°C° 0 mm 3 mps 752 mmHg 83%
19:00 +11°C° 0 mm 3 mps 752 mmHg 85%
20:00 +11°C° 0 mm 3 mps 752 mmHg 86%
21:00 +11°C° 0 mm 3 mps 752 mmHg 87%
22:00 +10°C° 0 mm 3 mps 752 mmHg 87%
23:00 +10°C° 0 mm 3 mps 751 mmHg 88%

, 26 October, Monday

Time Temperature Precipitation Wind Pressure Humidity
00:00 +9°C° 0 mm 3 mps 751 mmHg 89%
01:00 +9°C° 0 mm 3 mps 751 mmHg 90%
02:00 +9°C° 0 mm 3 mps 751 mmHg 91%
03:00 +9°C° 0 mm 3 mps 750 mmHg 92%
04:00 +8°C° 0 mm 3 mps 750 mmHg 92%
05:00 +7°C° 0 mm 4 mps 750 mmHg 93%
06:00 +7°C° 0 mm 4 mps 749 mmHg 94%
07:00 +7°C° 0 mm 4 mps 749 mmHg 94%
08:00 +8°C° 0 mm 4 mps 749 mmHg 89%
09:00 +10°C° 0 mm 5 mps 749 mmHg 84%
10:00 +12°C° 0 mm 5 mps 748 mmHg 79%
11:00 +13°C° 0 mm 5 mps 748 mmHg 76%
12:00 +14°C° 0 mm 6 mps 748 mmHg 73%
13:00 +15°C° 0 mm 6 mps 747 mmHg 69%
14:00 +15°C° 0 mm 6 mps 747 mmHg 73%
15:00 +14°C° 0 mm 5 mps 747 mmHg 76%
16:00 +13°C° 0 mm 5 mps 746 mmHg 79%
17:00 +13°C° 0 mm 5 mps 746 mmHg 81%
18:00 +12°C° 0 mm 5 mps 746 mmHg 82%
19:00 +12°C° 0 mm 5 mps 746 mmHg 84%
20:00 +11°C° 0 mm 4 mps 746 mmHg 86%
21:00 +11°C° 0 mm 4 mps 746 mmHg 88%
22:00 +11°C° 0 mm 4 mps 746 mmHg 90%
23:00 +10°C° 0 mm 3 mps 746 mmHg 90%

26 October, Monday

Time Temperature Precipitation Wind Pressure Humidity
00:00 +9°C° 0 mm 3 mps 751 mmHg 89%
01:00 +9°C° 0 mm 3 mps 751 mmHg 90%
02:00 +9°C° 0 mm 3 mps 751 mmHg 91%
03:00 +9°C° 0 mm 3 mps 750 mmHg 92%
04:00 +8°C° 0 mm 3 mps 750 mmHg 92%
05:00 +7°C° 0 mm 4 mps 750 mmHg 93%
06:00 +7°C° 0 mm 4 mps 749 mmHg 94%
07:00 +7°C° 0 mm 4 mps 749 mmHg 94%
08:00 +8°C° 0 mm 4 mps 749 mmHg 89%
09:00 +10°C° 0 mm 5 mps 749 mmHg 84%
10:00 +12°C° 0 mm 5 mps 748 mmHg 79%
11:00 +13°C° 0 mm 5 mps 748 mmHg 76%
12:00 +14°C° 0 mm 6 mps 748 mmHg 73%
13:00 +15°C° 0 mm 6 mps 747 mmHg 69%
14:00 +15°C° 0 mm 6 mps 747 mmHg 73%
15:00 +14°C° 0 mm 5 mps 747 mmHg 76%
16:00 +13°C° 0 mm 5 mps 746 mmHg 79%
17:00 +13°C° 0 mm 5 mps 746 mmHg 81%
18:00 +12°C° 0 mm 5 mps 746 mmHg 82%
19:00 +12°C° 0 mm 5 mps 746 mmHg 84%
20:00 +11°C° 0 mm 4 mps 746 mmHg 86%
21:00 +11°C° 0 mm 4 mps 746 mmHg 88%
22:00 +11°C° 0 mm 4 mps 746 mmHg 90%
23:00 +10°C° 0 mm 3 mps 746 mmHg 90%

27 October, Tuesday

Time Temperature Precipitation Wind Pressure Humidity
00:00 +10°C° 0 mm 3 mps 746 mmHg 91%
01:00 +10°C° 0 mm 3 mps 746 mmHg 91%
02:00 +10°C° 0.1 mm 3 mps 746 mmHg 90%
03:00 +10°C° 0.1 mm 3 mps 746 mmHg 89%
04:00 +11°C° 0.1 mm 3 mps 746 mmHg 88%
05:00 +11°C° 0 mm 3 mps 746 mmHg 86%
06:00 +11°C° 0 mm 4 mps 747 mmHg 84%
07:00 +11°C° 0 mm 4 mps 747 mmHg 83%
08:00 +12°C° 0 mm 4 mps 747 mmHg 77%
09:00 +14°C° 0 mm 4 mps 747 mmHg 72%
10:00 +15°C° 0 mm 4 mps 747 mmHg 67%
11:00 +17°C° 0 mm 4 mps 747 mmHg 65%
12:00 +18°C° 0 mm 4 mps 748 mmHg 63%
13:00 +18°C° 0 mm 4 mps 748 mmHg 61%
14:00 +17°C° 0 mm 3 mps 748 mmHg 65%
15:00 +17°C° 0 mm 2 mps 748 mmHg 69%
16:00 +16°C° 0 mm 2 mps 748 mmHg 73%
17:00 +15°C° 0 mm 2 mps 748 mmHg 77%
18:00 +14°C° 0 mm 1 mps 749 mmHg 80%
19:00 +14°C° 0 mm 1 mps 749 mmHg 83%
20:00 +13°C° 0 mm 1 mps 749 mmHg 84%
21:00 +13°C° 0 mm 1 mps 749 mmHg 85%
22:00 +13°C° 0 mm 1 mps 750 mmHg 85%
23:00 +13°C° 0 mm 1 mps 750 mmHg 86%

28 October, Wednesday

Time Temperature Precipitation Wind Pressure Humidity
00:00 +13°C° 0 mm 1 mps 750 mmHg 87%
01:00 +12°C° 0 mm 1 mps 750 mmHg 88%
02:00 +12°C° 0 mm 1 mps 750 mmHg 88%
03:00 +12°C° 0 mm 1 mps 750 mmHg 89%
04:00 +11°C° 0 mm 1 mps 750 mmHg 90%
05:00 +11°C° 0 mm 1 mps 750 mmHg 90%
06:00 +11°C° 0 mm 1 mps 751 mmHg 91%
07:00 +11°C° 0 mm 1 mps 751 mmHg 91%
08:00 +12°C° 0 mm 1 mps 751 mmHg 86%
09:00 +13°C° 0 mm 1 mps 751 mmHg 81%
10:00 +15°C° 0 mm 2 mps 751 mmHg 77%
11:00 +15°C° 0 mm 2 mps 751 mmHg 74%
12:00 +16°C° 0 mm 2 mps 751 mmHg 71%
13:00 +17°C° 0 mm 2 mps 751 mmHg 67%
14:00 +16°C° 0 mm 2 mps 751 mmHg 71%
15:00 +15°C° 0 mm 1 mps 751 mmHg 75%
16:00 +15°C° 0 mm 1 mps 751 mmHg 79%
17:00 +14°C° 0 mm 1 mps 751 mmHg 82%
18:00 +13°C° 0 mm 1 mps 752 mmHg 85%
19:00 +13°C° 0 mm 1 mps 752 mmHg 88%
20:00 +13°C° 0 mm 1 mps 752 mmHg 89%
21:00 +12°C° 0 mm 1 mps 752 mmHg 90%
22:00 +12°C° 0 mm 1 mps 752 mmHg 91%
23:00 +12°C° 0 mm 1 mps 752 mmHg 92%
Show more